www.pogodaiklimat.ru

Погода и климат >> Архив погоды >> Австралия >> Квинсленд >> Маккай


ПОГОДА в Маккае

  • Прогноз погоды в Маккае
  • Монитор погоды в Маккае

АРХИВ ПОГОДЫ в Маккае

Время (UTC), дата Ветер
(напр.,м/с)
 
Видим.   Явления Облачность Т
(С)
Тd
(С)
f
(%)
Тe
(С)
Тes
(С)
Комфортность P
(гПа)
Po
(гПа)
Тmin
(С)
Tmax
(С)
R
(мм)
R24
(мм)
S
(см)
14 17.04 ЮЗ 4 н/о 4/4 600 м
[]
+21.2 +19.3 89 +26 +26 душно 1017.8 1017.2 +27.1
17 17.04 Ю 3 н/о {туман} 4/0 2000 м
[]
+19.6 +18.1 91 +22 +22 комфорт 1016.5 1015.9
20 17.04 Ю 4 н/о 8/8 600 м
[]
+20.8 +19.1 90 +25 +25 комфорт 1017.1 1016.5
23 17.04 Ю 8 н/о н/о +24.3 +19.8 76 +30 +30 очень
душно
1018.3 1017.7
02 18.04 ЮВ 9 н/о 1/1 600 м
[]
+26.6 +20.4 69 +33 +34 очень
душно
1017.6 1017.0 +19.1
05 18.04 ЮВ 9 н/о 1/0 2000 м
[]
+27.1 +20.7 68 +34 +34 очень
душно
1016.4 1015.8
08 18.04 ЮВ 7 н/о н/о +24.1 +19.6 76 +29 +29 душно 1017.5 1016.9
11 18.04 ЮВ 7 н/о {туман} 10/10 600 м
[]
+24.2 +20.7 81 +30 +30 очень
душно
1019.2 1018.6
14 18.04 Ю 5 н/о в посл. час дождь {туман} 10/10 600 м
[]
+22.1 +20.4 90 +28 +28 душно 1018.9 1018.3 +27.8
17 18.04 Ю 6 н/о {осадки} 10/10 600 м
[]
+22.0 +20.1 89 +28 +28 душно 1017.2 1016.6 7
20 18.04 Ю 5 н/о 1/1 600 м
[]
+20.7 +19.0 90 +25 +25 комфорт 1017.5 1016.9
23 18.04 Ю 7 н/о 1/1 600 м
[]
+24.7 +21.2 81 +31 +33 очень
душно
1019.1 1018.5
02 19.04 ЮВ 9 н/о 1/1 600 м
[]
+26.6 +20.2 68 +33 +34 очень
душно
1017.9 1017.3 +20.6
05 19.04 ЮВ 9 н/о н/о +26.7 +19.8 66 +33 +33 очень
душно
1016.1 1015.5
08 19.04 ЮВ 6 н/о н/о +24.0 +19.5 76 +29 +29 душно 1016.7 1016.1
11 19.04 Ю 4 н/о н/о +20.8 +19.3 91 +25 +25 комфорт 1017.6 1017.0
14 19.04 ЮЗ 4 н/о 1/1 600 м
[]
+19.9 +18.7 93 +23 +23 комфорт 1016.6 1016.0 +27.8
17 19.04 Ю 4 н/о 6/6 600 м
[]
+20.7 +19.7 94 +25 +25 комфорт 1014.8 1014.2
20 19.04 Ю 5 н/о н/о +21.0 +19.3 90 +26 +26 душно 1015.2 1014.6
23 19.04 Ю 8 н/о н/о +24.8 +20.5 77 +31 +31 очень
душно
1016.6 1016.0
02 20.04 ЮВ 9 н/о 1/1 600 м
[]
+26.8 +20.6 69 +33 +35 очень
душно
1015.4 1014.8 +19.8
05 20.04 ЮВ 8 н/о 5/0 2000 м
[]
+27.4 +20.2 65 +34 +35 очень
душно
1013.5 1012.9
08 20.04 ЮВ 5 н/о н/о +24.7 +21.2 81 +31 +31 очень
душно
1013.9 1013.3
11 20.04 Ю 5 н/о 3/3 300 м
[]
+24.5 +21.8 85 +31 +31 очень
душно
1015.2 1014.6
14 20.04 Ю 6 н/о 8/8 300 м
[]
+24.5 +22.0 86 +32 +32 очень
душно
1014.7 1014.1 +28.8
17 20.04 Ю 4 н/о {туман} 6/6 1000 м
[]
+22.3 +20.8 91 +29 +29 очень
душно
1013.6 1013.0
20 20.04 Ю 5 н/о {туман} 3/3 600 м
[]
+22.6 +20.9 90 +30 +30 очень
душно
1014.0 1013.4
23 20.04 Ю 7 н/о {туман} 10/10 300 м
[]
+24.6 +21.5 83 +31 +31 очень
душно
1015.5 1014.9
02 21.04 ЮВ 8 н/о 10/10 1000 м
[]
+26.0 +22.3 80 +34 +34 очень
душно
1014.8 1014.2 +22.2
05 21.04 ЮВ 8 н/о {туман} 9/0 2000 м
[]
+26.4 +22.5 79 +35 +35 очень
душно
1013.2 1012.6
08 21.04 ЮВ 6 н/о н/о +24.8 +22.1 85 +32 +32 очень
душно
1013.9 1013.3
11 21.04 ЮВ 6 н/о 1/1 1000 м
[]
+24.0 +21.5 86 +31 +31 очень
душно
1015.8 1015.2
14 21.04 Ю 8 н/о 10/10 300 м
[]
+23.2 +21.5 90 +31 +31 очень
душно
1015.1 1014.5 +27.5
17 21.04 ЮВ 7 н/о {туман} 10/10 200 м
[]
+23.2 +21.8 92 +31 +31 очень
душно
1013.7 1013.1
20 21.04 ЮВ 8 н/о 10/10 300 м
[]
+24.0 +21.7 87 +31 +31 очень
душно
1014.3 1013.7
23 21.04 Ю 6 н/о {туман} 10/10 300 м
[]
+22.9 +21.4 91 +30 +30 очень
душно
1016.2 1015.6
02 22.04 ЮВ 7 н/о {туман} 10/10 300 м
[]
+24.8 +21.5 82 +32 +32 очень
душно
1014.8 1014.2 +22.3
05 22.04 ЮВ 7 н/о в посл. час дождь {туман} 6/6 200 м
[]
+23.3 +22.3 94 +32 +33 очень
душно
1014.0 1013.4
08 22.04 Ю 8 8000 м в посл. час дождь {туман} 10/10 200 м
[]
+21.7 +20.2 91 +27 +27 душно 1015.6 1015.0
11 22.04 В 6 н/о {туман} 10/10 600 м
[]
+23.1 +21.0 88 +31 +31 очень
душно
1017.1 1016.5
14 22.04 ЮВ 8 н/о {туман} 10/10 600 м
[]
+24.4 +21.1 82 +31 +31 очень
душно
1016.6 1016.0 +25.7
17 22.04 ЮВ 7 н/о {туман} 10/10 600 м
[]
+24.2 +21.1 83 +31 +31 очень
душно
1015.3 1014.7
20 22.04 Ю 4 н/о в посл. час дождь {туман} 10/10 600 м
[]
+22.0 +20.8 93 +28 +28 душно 1015.9 1015.3
23 22.04 Ю 6 н/о {туман} 10/10 300 м
[]
+23.1 +21.5 91 +31 +31 очень
душно
1017.2 1016.6
02 23.04 Ю 7 н/о в посл. час дождь {туман} 10/10 300 м
[]
+23.8 +22.2 91 +31 +31 очень
душно
1015.9 1015.3 +21.5
05 23.04 ЮВ 8 н/о {туман} 10/10 600 м
[]
+26.0 +22.9 83 +35 +35 очень
душно
1014.4 1013.8
08 23.04 ЮВ 8 н/о 10/10 300 м
[]
+24.7 +22.4 87 +32 +32 очень
душно
1015.2 1014.6
11 23.04 ЮВ 7 н/о {туман} 10/10 300 м
[]
+24.8 +22.3 86 +32 +32 очень
душно
1016.5 1015.9
14 23.04 ЮВ 6 н/о 10/10 300 м
[]
+24.6 +22.3 87 +32 +32 очень
душно
1015.6 1015.0 +26.5
17 23.04 ЮВ 6 н/о 10/10 600 м
[]
+24.5 +22.2 87 +32 +32 очень
душно
1014.1 1013.5
20 23.04 ЮВ 5 8000 м в посл. час дождь {туман} 10/10 100 м
[]
+23.0 +22.2 95 +31 +31 очень
душно
1014.7 1014.1
23 23.04 ЮВ 6 н/о в посл. час дождь {туман} 10/10 100 м
[]
+23.7 +22.9 95 +31 +31 очень
душно
1015.7 1015.1
02 24.04 ЮВ 8 н/о в посл. час дождь {туман} 10/10 600 м
[]
+24.9 +23.5 92 +34 +34 очень
душно
1014.5 1013.9 +22.7
05 24.04 ЮВ 9 н/о в посл. час дождь {туман} 10/10 200 м
[]
+24.1 +22.7 92 +32 +32 очень
душно
1012.7 1012.1
08 24.04 ЮВ 8 4000 м туман местами 10/10 100 м
[]
+23.6 +22.9 96 +31 +31 очень
душно
1013.2 1012.6
11 24.04 ЮВ 10 н/о в посл. час дождь {туман} 10/10 200 м
[]
+23.5 +21.9 91 +30 +30 очень
душно
1014.7 1014.1

 

Местоположение метеостанции Маккай (Квинсленд, Австралия): широта -21.17 долгота 149.18 высота над уровнем моря 6 м.

В архиве по умолчанию представлена погода в Маккае за последнюю неделю. Архивные данные за месяц целиком и за предыдущие месяцы, начиная с января 2011 года, Вы можете получить, выбрав интересующий диапазон дат из раскрывающегося списка и нажав кнопку "Ввод!".


*Определитесь, кто Вы:
робот инопланетянин человек

Внимание! Время в таблицах - всемирное. Для получения местного времени необходимо прибавить поправку, которая равна 10 ч.

Смотрите также архив погоды в соседних городах и на ближайших метеорологических станциях:

Погода в Маккае (Квинсленд, Австралия) (7 км)
Погода в Гамильтон Айленд (Квинсленд, Австралия) (94 км)
Погода в Прозерпине (Квинсленд, Австралия) (101 км)
Погода на Острове Мидл (Квинсленд, Австралия) (126 км)
Погода в Сент-Лоренсе (Квинсленд, Австралия) (136 км)
Погода в Крил Риф (Квинсленд, Австралия) (144 км)
Погода в Уильямсоне (Квинсленд, Австралия) (178 км)
Погода в Сэмюэл Хилл (Квинсленд, Австралия) (230 км)
Погода в Клермоне (Квинсленд, Австралия) (240 км)
Погода в Эре (Квинсленд, Австралия) (255 км)

Пояснения к столбцам:

Ветер - указаны скорость ветра в м/с - средняя за 10 мин, порывы в срок и между сроками (в фигурных скобках) и направление, откуда дует ветер: С - северный, СВ - северо-восточный, В - восточный, ЮВ - юго-восточный, Ю - южный, ЮЗ - юго-западный, З - западный, СЗ - северо-западный.
Видимость - горизонтальная дальность видимости в метрах или километрах. При видимости от 1 до 10 км при отсутствии осадков обычно наблюдается дымка, при ухудшении видимости до 1 км и менее - туман. В сухую погоду видимость может ухудшаться дымом, пылью или мглою.
Явления - указаны атмосферные явления, наблюдавшиеся в срок или в последний час перед сроком; фигурными скобками обозначены явления, наблюдавшиеся между сроками (за 1-3 часа до срока); квадратными скобками обозначены град или гололедные отложения с указанием их диаметра в мм.
Облачность - указаны через наклонную черту общая и нижняя облачность в баллах и высота нижней границы облаков в метрах; квадратными скобками обозначены формы облаков: Ci - перистые, Cs - перисто-слоистые, Cc - перисто-кучевые, Ac - высококучевые, As - высокослоистые, Sc - слоисто-кучевые, Ns - слоисто-дождевые, Cu - кучевые, Cb - кучево-дождевые. Подробнее классификацию облаков см. в Атласе облаков (PDF).
T - Температура воздуха - температура, измеренная на высоте 2 м над землей.
Td - Температура точки росы - температура, при понижении до которой содержащийся в воздухе водяной пар достигнет насыщения.
f - Относительная влажность воздуха - влажноcть воздуха, измеренная на высоте 2 м над землей.
Te - Эффективная температура - температура, которую ощущает одетый по сезону человек в тени. Характеристика душности погоды. При расчете учитывается влияние влажности воздуха и скорости ветра на теплоощущения человека.
Tes - Эффективная температура на солнце - температура, которую ощущает человек, с поправкой на солнечный нагрев. Характеристика знойности погоды. Зависит от высоты солнца над горизонтом, облачности и скорости ветра. Ночью, в пасмурную погоду, а также при ветре 12 м/с и более поправка равна нулю.
P - Атмосферное давление - приведенное к уровню моря атмосферное давление.
Po - Атмосферное давление - измеренное на уровне метеостанции атмосферное давление.
Tmin - Минимальная температура - минимум температуры воздуха на высоте 2 м над землей.
Tmax - Максимальная температура - максимум температуры воздуха на высоте 2 м над землей.
R - Количество осадков - Количество выпавших осадков за период времени, мм. При наведении курсора мыши на число - период времени, за который выпало указанное количество осадков.
R24 - Количество осадков - Количество выпавших осадков за 24 часа, мм.
S - Снежный покров - Высота снежного покрова, см. При наведении курсора мыши на число - состояние снежного покрова и степень покрытия местности в баллах.